Regional Weather Roundup
Issued by NWS

Home | Current Version | Previous Version | Text Only | Print | Product List | Glossary Off
Versions: 1 2 3 4 5 6 7 8 9 10 11 12 13 14 15 16 17 18 19 20 21 22 23 24 25 26 27 28 29 30 31 32 33 34 35 36 37 38 39 40 41 42 43 44 45 46 47 48 49 50

000
ASUS43 KIND 261909
RWRIN

WEATHER ROUNDUP FOR INDIANA
NATIONAL WEATHER SERVICE INDIANAPOLIS IN
300 PM EDT TUE AUG 26 2014

NOTE: "FAIR" INDICATES FEW OR NO CLOUDS BELOW 12,000 FEET WITH NO
SIGNIFICANT WEATHER AND/OR OBSTRUCTIONS TO VISIBILITY.

* - STATION DOES NOT REPORT WEATHER SUCH AS PRECIPITATION OR FOG.

+ - STATION NOT QUALITY CONTROLLED BY THE NATIONAL WEATHER SERVICE.
    USE DATA WITH CAUTION...ESPECIALLY DEWPOINT AND RELATIVE
    HUMIDITY OBSERVATIONS.

INZ001>003-010>013-019-020-262000-
NORTHWEST INDIANA

CITY           SKY/WX    TMP DP  RH WIND       PRES   REMARKS
GARY /AIRPORT/ PTSUNNY   75  68  78 S12       30.12R
KNOX *+        CLOUDY    69  66  90 N3        30.12F
MICHIGAN CITY+ LGT RAIN  68  68 100 CALM      30.10S
MONTICELLO +   HVY RAIN  71  68  90 W30G43    30.16R
RENSSELAER +   CLOUDY    72  72 100 SE3       30.12F
VALPARAISO     CLOUDY    71  70  96 SE5       30.13R

$$

LMZ046-743>745-262000-
SOUTHERN LAKE MICHIGAN

STATION/POSITION TIME  TEMP WIND        PRES
                       AIR  DIR/SP/G
                 (UTC) (F)  (DEG/KT/KT) (MB)
MICHIGAN CITY    1800   70   70/  9/ 13   N/A

$$

INZ004-005-014>016-021>024-262000-
NORTH CENTRAL INDIANA

CITY           SKY/WX    TMP DP  RH WIND       PRES   REMARKS
GOSHEN         CLOUDY    75  69  81 SW12      30.18R THUNDER
LOGANSPORT +   MOSUNNY   79  72  78 NW8       30.14R
PERU/GRISSOM   PTSUNNY   86  75  69 W8        30.10F HX  95
ROCHESTER +    TSTM      73  70  88 NW12G17   30.15R
SOUTH BEND     CLOUDY    70  68  93 E6        30.10F
WARSAW +       RAIN      72  68  88 NW20G37   30.15R

$$

INZ006>009-017-018-025>027-262000-
NORTHEAST INDIANA

CITY           SKY/WX    TMP DP  RH WIND       PRES   REMARKS
ANGOLA *+      MOSUNNY   81  70  69 W7        30.15R
AUBURN +       CLOUDY    82  70  65 NW3       30.12S
FORT WAYNE     PTSUNNY   82  74  76 NW8       30.11S
HUNTINGTON +   PTSUNNY   80  71  72 N6        30.11R

$$

INZ028-029-035-036-043>045-051>053-262000-
WEST CENTRAL INDIANA

CITY           SKY/WX    TMP DP  RH WIND       PRES   REMARKS
GREENCASTLE +  SUNNY     88  73  62 CALM      30.11S HX  96
LAFAYETTE      CLOUDY    72  67  84 N23G37    30.10R
TERRE HAUTE    MOSUNNY   90  76  63 S8        30.09F HX 101

$$

INZ030>032-037>040-046>048-054>057-064-065-262000-
CENTRAL INDIANA

CITY           SKY/WX    TMP DP  RH WIND       PRES   REMARKS
ANDERSON       MOSUNNY   88  72  58 NW14      30.12F
CP ATTERBURY + MOSUNNY   90  70  51 N3        30.10F HX  95
COLUMBUS       MOSUNNY   90  73  58 N5        30.10F HX  98
FRANKFORT +    MOSUNNY   91  76  62 W3        30.12S HX 102
INDIANAPOLIS   MOSUNNY   90  69  50 VRB3      30.10
-EAGLE CREEK   SUNNY     90  70  51 CALM      30.10F HX  95
KOKOMO *+      MOSUNNY   81  72  74 W8        30.11R
MARION +       PTSUNNY   80  66  64 CALM      30.12S
MT COMFORT *+  SUNNY     88  66  48 CALM      30.11F
SHELBYVILLE    SUNNY     91  73  55 CALM      30.10F HX  99
ZIONSVILLE +   PTSUNNY   89  72  56 N3        30.12R HX  95

$$

INZ033-034-041-042-049-050-058-059-262000-
EAST CENTRAL INDIANA

CITY           SKY/WX    TMP DP  RH WIND       PRES   REMARKS
MUNCIE         MOSUNNY   83  72  69 NW13G22   30.11F

$$

INZ060-061-067>069-081>083-085>088-262000-
SOUTHWEST INDIANA

CITY           SKY/WX    TMP DP  RH WIND       PRES   REMARKS
EVANSVILLE     MOSUNNY   91  72  53 E6        30.09F HX  98
WASHINGTON +   MOSUNNY   89  75  62 CALM      30.08F HX  98

$$

INZ062-063-066-070>080-084-089>092-262000-
SOUTH CENTRAL AND SOUTHEAST INDIANA

CITY           SKY/WX    TMP DP  RH WIND       PRES   REMARKS
BLOOMINGTON    SUNNY     88  72  58 CALM      30.10F

$$




USA.gov is the U.S. government's official web portal to all federal, state and local government web resources and services.